Flag for U.S.A. Weather past 2 weeks in Baton Rouge, Louisiana, U.S.A.

Now
69 °F

Overcast.


Feels Like: 69 °F
Forecast: 67 / 75 °F
Wind: 9 mph from East

Location: Baton Rouge Metropolitan - Ryan Field

Current Time: Apr 18, 2015 at 7:31:59 AM

Latest Report: Apr 18, 2015 at 6:53 AM


Visibility: 10 mi

Pressure: 29.88 "Hg

Humidity: 93%

Dew point: 67 °F

Location of Baton RougeLocation

Historic Weather in Baton Rouge — Graph

°F

Baton Rouge temperature yesterday

Maximum temperature yesterday: 83 °F (at 3:53 PM)
Minimum temperature yesterday: 66 °F (at 4:53 AM)
Average temperature yesterday: 74 °F

Past Weeks' High & Low Weather Summary

 TemperatureHumidityPressure
High87 °F (Apr 8, 1:53 PM)100% (Apr 7, 5:53 AM)30.28 "Hg (Apr 7, 5:53 AM)
Low52 °F (Apr 5, 4:53 AM)35% (Apr 4, 4:53 PM)29.89 "Hg (Apr 17, 4:53 PM)
Average71 °F83%30.03 "Hg
* Reported Apr 3 5:53 AM — Apr 18 5:53 AM, Baton Rouge, Weather by CustomWeather, © 2015

Note: Actual official high and low records may vary slightly from our data, if they occured in-between our weather recording intervals... More about our weather records

Advertising

Baton Rouge weather history for previous 24 hours

 ConditionsComfort  
Time TempWeatherWind HumidityBarometerVisibility
5:53 AM
Sat, Apr 18
69 °FHeavy rain. Fog.No wind96%29.92 "Hg2 mi
4:53 AM69 °FLight rain. Fog.3 mph96%29.90 "Hg6 mi
3:53 AM69 °FLight rain. Passing clouds.5 mph93%29.92 "Hg10 mi
3:00 AM70 °FLight rain. Fog.6 mph93%29.91 "Hg5 mi
2:01 AM70 °FLight rain. Fog.No wind97%29.96 "Hg2 mi
12:53 AM72 °FLight rain. Passing clouds.No wind87%29.95 "Hg10 mi
11:53 PM
Fri, Apr 17
72 °FClear.6 mph87%29.90 "Hg10 mi
10:53 PM72 °FClear.3 mph87%29.95 "Hg7 mi
9:53 PM72 °FFog.No wind91%29.94 "Hg5 mi
8:53 PM73 °FClear.No wind88%29.93 "Hg9 mi
7:53 PM75 °FSunny.No wind82%29.91 "Hg10 mi
6:53 PM78 °FSunny.No wind74%29.91 "Hg10 mi
5:53 PM81 °FSunny.N/A60%29.90 "Hg10 mi
4:53 PM83 °FPassing clouds.3 mph57%29.89 "Hg10 mi
3:53 PM83 °FPartly sunny.7 mph59%29.91 "Hg10 mi
2:53 PM82 °FPartly sunny.5 mph60%29.93 "Hg10 mi
1:53 PM81 °FPartly sunny.10 mph67%29.96 "Hg10 mi
12:53 PM80 °FPartly sunny.5 mph69%29.99 "Hg10 mi
11:53 AM77 °FPartly sunny.No wind77%30.01 "Hg10 mi
10:53 AM77 °FPartly sunny.8 mph77%29.99 "Hg10 mi
9:53 AM74 °FPartly sunny.8 mph79%29.99 "Hg10 mi
8:53 AM72 °FPartly sunny.5 mph87%29.98 "Hg10 mi
7:53 AM68 °FSunny.6 mph96%29.94 "Hg10 mi
Weather by CustomWeather, © 2015

See weather overviewHow to use our weather pages